SCOUT X-4 DEB, 976

Orbit data source: Space-Track

SCOUT X-4 DEB, 976 is space debris in LEO originally from a launch on Sat, 10 Oct 1964 UTC launched from the Air Force Western Test Range (AFWTR). Debris objects in space refer to the collection of defunct objects orbiting the Earth. Examples of debris include non-operational satellites, rocket bodies, and fragments generated from explosions, collisions, or faulty payload assembly.

Loading next visibility...
Identifier
976, 1964-064C
Orbit
LEO
Last TLE update
4 days ago
Origin
Manufacturer
APL
Mission
Spacecraft
Bus & Motor
Unknown
Mass
Unknown
Launch date (UTC)
1964-10-10 (61 years ago)
Launch vehicle
Unknown
Launch site
Air Force Western Test Range (AFWTR)
Object type
Payload
Rocket body
Debris
Shape & HBR
Unknown
Radar Cross Section
Small (<0.1 m²)

Expand to show TLE details & history

TLE from 4 days ago
0 SCOUT X-4 DEB
1 00976U 64064C   25125.32918852  .00001610  00000-0  89416-3 0  9994
2 00976  79.3126  80.3414 0117215  35.6549 325.2370 14.07525705 85585
Epoch: 2025-05-05T07:54Z
Definitive object data (Epoch: 2025-05-05T07:54:01.888Z)
Latitude
-0.00002°
Longitude
98.38922°
Altitude
801.219 km
Speed
7.489 km/s
True Right ascension
05h 21m 21s
True Declination
0° 00' 00"
Sunlit
Object was in daylight at TLE epoch
Visualization TLE readout
Latitude
15.26718°
Longitude
-89.20324°
Altitude
933.794 km
Speed
7.354 km/s
Apparent Right ascension
19h 39m 38s
Apparent Declination
-28° 28' 07"
Sunlit
Object is in full shadow
Visualization observer readout
Local Sidereal Time
14:38:55
Azimuth
120.964° SE
Elevation
-7.665°
Doppler factor
1
Orbital elements
Apogee altitude
950.032 km
Perigee altitude
780.228 km
Semi-major axis
7,243.267 km
Eccentricity
0.0117215
Inclination
79.3126°
RAAN
80.3414°
Arg. of periapsis
35.6549°
True anomaly
324.46184°
Mean anomaly
325.237°
Eccentric anomaly
324.85035°
Mean motion
3.5208 °/min
BSTAR
0.00089416
Orbital period
102.25 mins
Loading maneuver chart data...
Loading SW <> Apogee altitude chart data...
Loading historical data...
Loading historical data...
Loading historical data...
Loading historical data...
Loading historical data...
Loading historical data...
Loading historical data...
Other satellites on launch #64 in the year 1964 (1964-10-10 UTC)

SCOUT X-4 DEB Visibility forecast

Observer location: undefined°, undefined°

Span
Click to sort rows by Start time (UTC) header in descending order
Start Az.
Max El. time (UTC)
Max El. Az.
Max El.
End time (UTC)
End Az.
10 mins2025-05-09 08:00:05.070Z353.473° N2025-05-09 08:05:05.070Z80.715° E43.629°2025-05-09 08:10:05.070Z160.771° S
4 mins2025-05-09 09:46:05.070Z293.399° NW2025-05-09 09:48:05.070Z271.105° WNW14.243°2025-05-09 09:50:05.070Z249.564° W
9 mins2025-05-09 21:12:05.070Z182.888° SSW2025-05-09 21:16:05.070Z115.678° SE44.014°2025-05-09 21:21:05.070Z15.593° NNE
|